Location: Zapote
(9.9191°N, 84.0597°W)
Time: 04:20:52
(UTC-06:00)

N. Korean satellite - Pass Details

Date: 28 January 2021
Orbit: 451 x 503 km, 97.2° (Epoch: 27 February)

Event Time Altitude Azimuth Distance (km) Brightness Sun altitude
Rises 05:23:38 0° 346° (NNW) 2,448 9.8 -9.1°
Reaches altitude 10° 05:26:08 10° 326° (NW) 1,575 8.7 -8.5°
Maximum altitude 05:28:26 17° 283° (WNW) 1,197 7.9 -7.9°
Drops below altitude 10° 05:30:44 10° 239° (WSW) 1,577 8.8 -7.4°
Sets 05:33:16 0° 219° (SW) 2,453 9.9 -6.8°
